Location: *
(33.6842°N, 117.7925°W)
Time: 14:36:14
(UTC+00:00)

Cosmos 1437 Rocket - Pass Details

Date: 21 October 2019
Orbit: 507 x 562 km, 81.2° (Epoch: 16 November)

Event Time Altitude Azimuth Distance (km) Brightness Sun altitude
Rises 12:15:25 0° 175° (S) 2,608 6.3 -22.6°
Reaches altitude 10° 12:17:35 10° 169° (SSE) 1,721 5.4 -22.1°
Maximum altitude 12:21:13 46° 95° (E) 685 3.7 -21.4°
Drops below altitude 10° 12:24:50 10° 21° (NNE) 1,725 5.6 -20.6°
Sets 12:27:01 0° 15° (NNE) 2,615 6.5 -20.2°
